Location: Vihti�l�
(61.3833°N, 23.0667°E)
Time: 04:24:00
(UTC+00:00)

Meteor 1-26 Rocket - Pass Details

Date: 29 November 2020
Orbit: 807 x 928 km, 81.3° (Epoch: 19 January)

Event Time Altitude Azimuth Distance (km) Brightness Sun altitude
Exits shadow 03:06:50 79° 252° (WSW) 905 4.1 -27.1°
Drops below altitude 10° 03:12:29 10° 171° (S) 2,495 6.7 -26.4°
Sets 03:14:52 0° 170° (S) 3,410 7.4 -26.1°
